Regional Weather Roundup
Issued by NWS Sterling, VA

Home | Current Version | Previous Version | Text Only | Print | Product List | Glossary On
Versions: 1 2 3 4 5 6 7 8 9 10 11 12 13 14 15 16 17 18 19 20 21 22 23 24 25 26 27 28 29 30 31 32 33 34 35 36 37 38 39 40 41 42 43 44 45 46 47 48 49 50
000
ASUS41 KLWX 131711
RWRLWX

REGIONAL WEATHER ROUNDUP
NATIONAL WEATHER SERVICE BALTIMORE MD/WASHINGTON DC
1200 PM EST SAT FEB 13 2016

Note: "FAIR" indicates few or no clouds below 12,000 feet
with no significant weather and/or obstructions to visibility.
 TC=TEMPERATURE CELSIUS

 * =Non NWS site. Station does not report precipitation (e.g. rain,
    snow, etc.), thunder, or fog.

DCZ001-MDZ009-015-VAZ040>042-051-053>054-131800-
WASHINGTON METRO

CITY           SKY/WX    TMP DP  RH WIND       PRES   REMARKS
WASHINGTON NAT FAIR      22  -4  32 NW23G32   30.30R WCI   6
DULLES         PTSUNNY   19  -3  38 NW25G39   30.28R WCI   1
ANDREWS AFB    MOSUNNY   21  -2  37 NW18G31   30.24R WCI   6
FT BELVOIR     FAIR      22  -4  31 NW22G29   30.30R WCI   7
QUANTICO       PTSUNNY   25   1  35 N22G29    30.31R WCI  10
COLLEGE PARK*  PTSUNNY   23  -4  30 W16G28    30.27S WCI  10
LEESBURG*      CLOUDY    23   5  46 W20G29    30.29S WCI   8
MANASSAS*      MOSUNNY   23   0  36 NW23G35   30.32R WCI   7
GAITHERSBURG*  MOSUNNY   18  -2  41 NW15G30   30.27S WCI   3

$$

MDZ006>007-011-014-131800-
BALTIMORE METRO

CITY           SKY/WX    TMP DP  RH WIND       PRES   REMARKS
BWI AIRPORT    PTSUNNY   20  -7  30 NW14G36   30.24R WCI   7
MD SCIENCE CTR   N/A     21  -5  31 MISG      30.25F
MARTIN STATE   MOSUNNY   25  -2  30 W21G38    30.25R WCI  10
ANNAPOLIS      MOSUNNY   22  -2  35 W14G23    30.25R WCI   9
FORT MEADE*    MOSUNNY   23  -2  33 W16G28    30.28S WCI  10

$$

MDZ012-015-019>023-131800-
MARYLAND EASTERN SHORE

CITY           SKY/WX    TMP DP  RH WIND       PRES   REMARKS
OCEAN CITY     PTSUNNY   26   3  37 W22G36    30.16F WCI  12
SALISBURY      PTSUNNY   25   1  35 NW17G36   30.19R WCI  12
BAY BRIDGE AP*   N/A     23  -2  33 W21G28    30.24S WCI   8
CAMBRIDGE*     MOSUNNY   23  -2  33 NW23G31   30.23S WCI   7
EASTON*        MOSUNNY   25  -2  30 NW23G31   30.26R WCI  10

$$

MDZ017>025-131800-
SOUTHERN MARYLAND

CITY           SKY/WX    TMP DP  RH WIND       PRES   REMARKS
PATUXENT RIVER PTSUNNY   26  -3  28 NW24G36   30.24S WCI  11
ST INIGOES     PTSUNNY   26   3  37 W18G35    30.24S WCI  13
LEONARDTOWN*   SUNNY     25  -4  28 W18G32    30.25  WCI  11

$$

MDZ003>005-131800-
NORTH CENTRAL MARYLAND

CITY           SKY/WX    TMP DP  RH WIND       PRES   REMARKS
FREDERICK*     PTSUNNY   18   1  49 NW17G30   30.30R WCI   2
HAGERSTOWN APT CLOUDY    16  -1  47 NW22      30.24R WCI  -2
WESTMINSTER*   MOSUNNY   16   3  57 NW20G29   30.19S HAZE    WCI  -1

$$

MDZ501>502-131800-
WESTERN MARYLAND

CITY           SKY/WX    TMP DP  RH WIND       PRES   REMARKS
OAKLAND*       CLOUDY     1  -9  60 W18G32    30.10R HAZE    WCI -19
CUMBERLAND*    SUNNY     18  -4  38 NW10G23   30.34S WCI   6

$$

VAZ025>031-131800-
SHENANDOAH VALLEY

CITY           SKY/WX    TMP DP  RH WIND       PRES   REMARKS
WINCHESTER*    PTSUNNY   19   0  42 NW21      30.27R WCI   3
FRONT ROYAL*   FAIR      18  -4  38 NW15G24   30.26R WCI   3
LURAY*         FAIR      19  -4  35 N15G25    30.26R WCI   5
NEW MARKET*    CLOUDY    19  -5  34 NW13G20   30.26R WCI   6
STAUNTON*      PTSUNNY   24  -6  26 NW7G20    30.26S
WAYNESBORO*    FAIR      20 -11  25 NW13G28   30.21S WCI   7

$$

WVZ021-048>050-054>055-131800-
EASTERN WEST VIRGINIA PANHANDLE

CITY           SKY/WX    TMP DP  RH WIND       PRES   REMARKS
MARTINSBURG    PTSUNNY   16  -4  41 NW18G32   30.28R WCI   0
PETERSBURG*    CLOUDY    15  -3  44 NW15G21   30.32R WCI   0

$$

VAZ036>039-050-131800-
CENTRAL FOOTHILLS

CITY           SKY/WX    TMP DP  RH WIND       PRES   REMARKS
CHARLOTTESVILL PTSUNNY   22  -5  30 NW12G20   30.27R WCI  10
CULPEPER*      FAIR      23  -4  30 NW14G22   30.30R WCI  11
ORANGE*        FAIR      27   0  31 W12       30.28S WCI  16
GORDONSVILLE*  FAIR      24  -5  28 NW10G20   30.27S WCI  14
WARRENTON*     FAIR      24   4  42 NW16G29   30.28S WCI  10

$$

VAZ055>057-131800-
NORTH AND CENTRAL PIEDMONT

CITY           SKY/WX    TMP DP  RH WIND       PRES   REMARKS
FREDERICKSBRG* FAIR      24  -1  33 NW21G33   30.27F WCI  10
STAFFORD*      PTSUNNY   25  -2  31 NW21G26   30.32S WCI  10

$$

NCZ024-NYZ072-PAZ021-071-VAZ022-071-131800-
OTHER REGIONAL OBSERVATIONS

CITY           SKY/WX    TMP DP  RH WIND       PRES   REMARKS
NEW YORK CITY  PTSUNNY   20  -8  28 W10G28    30.06R WCI   9
PHILADELPHIA   PTSUNNY   22   1  40 W22G35    30.16S WCI   6
PITTSBURGH     LGT SNOW   9   0  67 W20       30.33R WCI -10
ROANOKE        FAIR      22  -4  32 W23G35    30.31S WCI   6
RICHMOND       FAIR      28  -3  26 NW22      30.27S WCI  14
RALEIGH        MOSUNNY   32   0  25 NW9G20    30.32R WCI  24

$$

ANZ530>537-131800-
MARINE OBSERVATIONS

STATION/POSITION TIME  TEMP    WIND        PRES
                       AIR SEA DIR/SP/G
                 (UTC) (F)     (DEG/KT/KT) (MB)
THOMAS PT LIGHT  1700   20 36  300/ 25/ 28 1024.5R
BALT KEY BRIDGE  1600   20     290/ 23/ 28 1023.2R
COVE POINT       1600   20     340/ 24/ 31 1024.5R
LEWISETTA        1600   24 35  340/ 15/ 20 1024.3R
SOLOMONS ISLAND  1600   23 38  320/ 17/ 23   N/A
PINEY POINT      1600          330/ 30/ 33   N/A

$$




USA.gov is the U.S. government's official web portal to all federal, state and local government web resources and services.